Location: ??????????
(54.8537°N, 38.8755°E)
Time: 21:54:50
(UTC+00:00)

Tiros 1 - Pass Details

Date: 16 September 2024
Orbit: 623 x 654 km, 48.4° (Epoch: 09 October)

Event Time Altitude Azimuth Distance (km) Brightness Sun altitude
Rises 18:40:30 0° 270° (W) 2,919 11.2 -24.3°
Reaches altitude 10° 18:44:34 10° 235° (SW) 2,015 9.8 -24.7°
Enters shadow 18:45:23 11° 225° (SW) 1,956 9.6 -24.8°
Maximum altitude 18:45:51 11° 219° (SW) 1,948 - -24.8°
Drops below altitude 10° 18:47:07 10° 203° (SSW) 2,018 - -24.9°
Sets 18:51:12 0° 168° (SSE) 2,931 - -25.3°
